Aérodrome :
LOGIN :

S'inscrire | Disclaimer

   EN    FR    IT 

 










Légende :    VFR   VFR Marginal   IFR   IFR Intensif   IFR Très Intensif
Visi : 
Plafond : 
>= 8 km
>= 3000ft
5 à 8 km
1000 à 3000 ft
1500m à 5 km
500 à 1000 ft
800 à 1500m
200 à 500 ft
< 800m
< 200 ft
Symboles :   Orages  Brouillard  Fortes neiges  Fortes précipitations  Vent > 20 kt
SIGMETs :   Divers  Orages  Givrage  Turbulence  Onde Orograph.  Cendres Volcan.






- Altitude de l'aérodrome : 287 ft
- Code IATA : TOE


DTTZ - Nefta - Tozeur

DERNIER METAR :
  • 060100Z 09014KT 27/18 Q1012

METARs EXPIRÉS :
  • 060000Z 09014KT 8000 NSC 27/18 Q1012 NOSIG
  • 052300Z 09016KT 8000 NSC 27/17 Q1012 NOSIG

TAF TAF DTTZ
Valide du 05 à 18h jusqu'au 06 à 18h UTC


051700Z 0518/0618 10018KT 8000 NSC
PROB40
TEMPO 0521/0602 11022G34KT 4000 SA
BECMG 0609/0611 10007KT



MET'MAP, la Météo Aéronautique d'un coup d'oeil ! - Copyright ORBIFLY Décembre 2007 - Disclaimer

ORBIFLY MET'MAP TEAM :

Programmation & Développement : Alexandra Zaïnal
Sur une idée originale de : Baudouin d'Aumeries
Assistance à la programmation : Marc-Olivier Méhu
Soutien technique & logistique : Manuel Goepfert

Contact : metmap@orbifly.com




SOURCES & CREDITS :

   NOAA